Back to catalog

STARLINK-30186

AliveCommunicationsVLEO
NORAD 57470·PAYLOAD·🇺🇸 United States

Launched Jul 28, 2023 from Cape Canaveral Space Force Station

Loading…

Next Passes (next 24 hours)

TLE

FreshSource: CelesTrak SupGP

Epoch: Sep 14, 2026, 21:15 UTC

1 57470C 23107P   26257.88590278  .00026933  00000+0  23150-3 0  2578
2 57470  42.9999 331.3639 0004046  14.2164  83.7571 15.68377815    10

Track STARLINK-30186 in real time with AllMySat

Download on the App Store